[[{"header":{"parameterUnit":"m.s-1","parameterCategory":1,"la1":30.2991,"la2":30.254,"lo1":-89.0895,"lo2":-89.0444,"dy":0.0017,"dx":0.0017,"nx":28,"ny":28,"refTime":"2025-09-13T21:00:00:Z","depth":0,"parameterNumber":2,"parameterNumberName":"U-component_of_WINDS"},"data":[0,0,0,0,0,0,0,0,0,0,0,0,0,0,0,0,0,0,0,0,0,0,0,0,0,0,0,0,0,0,0,0,0,0,0,0,0,0,0,0,0,0,0,0,0,0,0,0,0,0,0,0,0,0,0,0,0,0,-2.6668,-2.6669,0,-2.671,-2.671,-2.6711,-2.6655,-2.6653,-2.6651,-2.6649,-2.6692,-2.6695,-2.6698,0,0,0,0,0,0,0,0,0,0,0,0,0,-2.6541,-2.6543,-2.6668,-2.6669,-2.6669,-2.671,-2.671,-2.6711,-2.6655,-2.6652,-2.665,-2.6648,-2.6691,-2.6694,-2.6698,0,0,0,0,0,0,0,0,0,0,0,0,0,-2.6591,-2.6544,-2.6668,-2.6646,-2.6645,-2.6709,-2.671,-2.6711,-2.6655,-2.6652,-2.6649,-2.6647,-2.669,-2.6694,-2.6699,-2.6787,0,0,-2.6712,-2.6714,0,0,0,0,0,0,0,0,-2.6588,-2.6595,-2.6649,-2.6648,-2.6646,-2.6674,-2.6681,-2.6736,-2.6656,-2.6651,-2.6649,-2.6645,-2.6688,-2.6693,-2.6707,-2.6789,-2.6791,-2.6713,-2.6716,-2.6718,-2.6719,0,0,0,0,0,0,0,-2.6585,-2.6593,-2.6684,-2.665,-2.6648,-2.6634,-2.6638,-2.6691,-2.6686,-2.6652,-2.6648,-2.6653,-2.6687,-2.6703,-2.6708,-2.6791,-2.6713,-2.6717,-2.672,-2.6721,-2.6947,-2.695,0,0,0,0,0,0,-2.6584,-2.6591,-2.6683,-2.6686,-2.6609,-2.6639,-2.6643,-2.6668,-2.6686,-2.6685,-2.6656,-2.665,-2.6697,-2.6703,-2.6709,-2.6813,-2.6717,-2.6722,-2.6724,-2.6944,-2.6948,-2.6952,0,0,0,0,0,0,-2.6581,-2.6592,-2.6681,-2.6637,-2.6647,-2.6645,-2.6673,-2.667,-2.6686,-2.6689,-2.6688,-2.6673,-2.6695,-2.6703,-2.6768,-2.6814,-2.6724,-2.6728,-2.694,-2.6945,-2.695,-2.7022,0,0,0,0,0,0,-2.6578,-2.6592,-2.6625,-2.6638,-2.665,-2.674,-2.6676,-2.6673,-2.6694,-2.6688,-2.6705,-2.6704,-2.6693,-2.6761,-2.6772,-2.6818,-2.6731,-2.6936,-2.6942,-2.6948,-2.7015,-2.7029,-2.704,0,0,0,0,0,-2.6573,-2.6644,-2.6627,-2.6639,-2.6692,-2.6742,-2.6749,-2.6734,-2.6698,-2.6732,-2.6733,-2.6704,-2.6807,-2.6769,-2.678,-2.6828,-2.6933,-2.6941,-2.6948,-2.701,-2.7026,-2.704,0,0,0,0,0,0,-2.6636,-2.6645,-2.6627,-2.6704,-2.6723,-2.6733,-2.6774,-2.6752,-2.6781,-2.6774,-2.6754,-2.6759,-2.6828,-2.6835,-2.6792,-2.6915,-2.6864,-2.6874,-2.6907,-2.6923,-2.6935,-2.6931,-2.6735,0,0,0,0,0,-2.6659,-2.67,-2.6705,-2.6773,-2.6783,-2.6778,-2.6799,-2.6786,-2.6805,-2.6812,-2.6819,-2.6838,-2.6875,-2.6899,-2.6933,-2.7017,-2.7019,-2.7056,-2.7068,-2.7078,-2.7087,-2.713,-2.7146,-2.6976,-2.6976,-2.6976,0,0,-2.6707,-2.6717,-2.6743,-2.6786,-2.6799,-2.6841,-2.6784,-2.6831,-2.6862,-2.6819,-2.6881,-2.6887,-2.6907,-2.6981,-2.7014,-2.6989,-2.7135,-2.7088,-2.7096,-2.7099,-2.714,-2.7156,-2.717,-2.6981,-2.698,-2.6979,0,0,-2.6815,-2.6827,-2.6884,-2.6898,-2.6919,-2.6915,-2.6928,-2.6942,-2.6944,-2.7005,-2.6974,-2.7011,-2.7075,-2.709,-2.7107,-2.7221,-2.7195,-2.7233,-2.7297,-2.734,-2.7353,-2.7365,-2.7405,-2.742,-2.7242,-2.7242,-2.7242,0,-2.6871,-2.6933,-2.6916,-2.6965,-2.6985,-2.6948,-2.7006,-2.702,-2.7051,-2.7065,-2.7037,-2.7116,-2.7127,-2.7204,-2.7232,-2.7247,-2.7262,-2.723,-2.7353,-2.7365,-2.7375,-2.7413,-2.7428,-2.7247,-2.7246,-2.7246,-2.7245,0,-2.7001,-2.7045,-2.7088,-2.7119,-2.7143,-2.7196,-2.7188,-2.7215,-2.72,-2.7199,-2.7262,-2.7274,-2.7309,-2.7327,-2.7313,-2.7403,-2.7386,-2.7356,-2.7304,-2.7396,-2.7431,-2.7446,-2.7253,-2.7251,-2.725,-2.7249,0,0,-2.7149,-2.7169,-2.7186,-2.7199,-2.7219,-2.7252,-2.7304,-2.7339,-2.7362,-2.7385,-2.7427,-2.7482,-2.7454,-2.7473,-2.746,-2.7498,-2.7587,-2.7463,-2.7463,-2.7484,-2.7685,-2.7706,-2.7723,-2.757,-2.7573,-2.7575,-2.7683,0,-2.7255,-2.7344,-2.7331,-2.7417,-2.7456,-2.7422,-2.7467,-2.7485,-2.7485,-2.7519,-2.752,-2.7559,-2.752,-2.753,-2.7567,-2.7569,-2.7627,-2.7561,-2.7609,-2.7611,-2.7603,-2.7742,-2.7765,-2.7865,-2.7696,-2.7699,-2.77,0,-2.7391,-2.7419,-2.7509,-2.7522,-2.7538,-2.7579,-2.7609,-2.7643,-2.7662,-2.7659,-2.7681,-2.7662,-2.7713,-2.7662,-2.7733,-2.7688,-2.7707,-2.7711,-2.7715,-2.7717,-2.766,-2.7747,-2.7897,-2.7912,-2.7722,-2.772,-2.7719,0,-2.7488,-2.7548,-2.7609,-2.7622,-2.764,-2.7669,-2.7678,-2.7694,-2.7716,-2.7743,-2.7756,-2.7789,-2.7807,-2.7833,-2.7823,-2.7787,-2.7896,-2.7844,-2.7894,-2.7895,-2.7917,-2.7916,-2.8071,-2.7933,-2.7933,-2.7932,-2.7932,0,-2.7608,-2.7664,-2.7653,-2.769,-2.7752,-2.7736,-2.7798,-2.7803,-2.7817,-2.7855,-2.7829,-2.7865,-2.785,-2.7886,-2.7879,-2.7937,-2.7946,-2.7945,-2.7942,-2.7947,-2.7947,-2.7958,-2.795,-2.7936,-2.7935,-2.7935,-2.7934,0,-2.7726,-2.7721,-2.7785,-2.7797,-2.7801,-2.7846,-2.7856,-2.7891,-2.789,-2.7938,-2.7949,-2.7947,-2.7987,-2.7981,-2.8025,-2.802,-2.8093,-2.8083,-2.8087,-2.8084,-2.8134,-2.8129,-2.8301,-2.8322,-2.8171,-2.8173,-2.8174,0,-2.7801,-2.7843,-2.786,-2.7884,-2.7895,-2.7933,-2.7954,-2.7942,-2.7965,-2.7991,-2.8023,-2.806,-2.8089,-2.8155,-2.8158,-2.8192,-2.818,-2.8239,-2.8185,-2.8188,-2.8179,-2.8176,-2.818,-2.8249,-2.825,-2.8252,-2.8253,0,-2.7936,-2.7931,-2.7964,-2.7996,-2.8023,-2.8048,-2.807,-2.809,-2.8079,-2.8107,-2.8148,-2.8171,-2.8216,-2.8253,-2.8285,-2.8294,-2.8272,-2.827,-2.8283,-2.8287,-2.8286,-2.8286,-2.8114,-2.8266,-2.8264,-2.8263,-2.8263,-2.8262,-2.8034,-2.8069,-2.8086,-2.8124,-2.8139,-2.816,-2.8193,-2.8197,-2.823,-2.8266,-2.8257,-2.8302,-2.832,-2.8361,-2.8373,-2.8409,-2.8387,-2.8407,-2.8411,-2.8416,-2.8421,-2.8283,-2.8415,-2.8415,-2.8414,-2.8414,-2.8414,0,-2.8165,-2.8175,-2.8209,-2.8241,-2.827,-2.8247,-2.827,-2.8296,-2.8337,-2.8356,-2.8385,-2.8431,-2.8468,-2.8474,-2.8508,-2.8535,-2.8526,-2.8545,-2.8542,-2.8544,-2.8439,-2.8424,-2.8552,-2.8552,-2.8552,-2.8552,-2.8552,-2.8552,-2.8237,-2.8295,-2.8293,-2.8359,-2.8369,-2.8413,-2.8428,-2.8447,-2.8462,-2.8515,-2.8545,-2.8549,-2.8563,-2.8598,-2.863,-2.8631,-2.8644,-2.8667,-2.8664,-2.8565,-2.8551,-2.8538,-2.8523,-2.867,-2.867,-2.8765,-2.8766,-2.8766]},{"header":{"parameterUnit":"m.s-1","parameterCategory":1,"la1":30.2991,"la2":30.254,"lo1":-89.0895,"lo2":-89.0444,"dy":0.0017,"dx":0.0017,"nx":28,"ny":28,"refTime":"2025-09-13T21:00:00:Z","depth":0,"parameterNumber":3,"parameterNumberName":"V-component_of_WINDS"},"data":[0,0,0,0,0,0,0,0,0,0,0,0,0,0,0,0,0,0,0,0,0,0,0,0,0,0,0,0,0,0,0,0,0,0,0,0,0,0,0,0,0,0,0,0,0,0,0,0,0,0,0,0,0,0,0,0,0,0,-1.0699,-1.0698,0,-1.0564,-1.0562,-1.056,-1.0472,-1.0472,-1.0471,-1.0471,-1.0327,-1.0324,-1.0321,0,0,0,0,0,0,0,0,0,0,0,0,0,-1.0877,-1.0874,-1.0699,-1.0698,-1.0696,-1.0564,-1.0562,-1.056,-1.0472,-1.0472,-1.0471,-1.047,-1.0328,-1.0325,-1.0321,0,0,0,0,0,0,0,0,0,0,0,0,0,-1.0776,-1.0873,-1.07,-1.0636,-1.0629,-1.0564,-1.0562,-1.056,-1.0472,-1.0472,-1.0471,-1.047,-1.033,-1.0325,-1.032,-1.0306,0,0,-1.0305,-1.0303,0,0,0,0,0,0,0,0,-1.0782,-1.077,-1.0647,-1.0641,-1.0633,-1.0534,-1.0572,-1.0474,-1.0473,-1.0532,-1.0471,-1.047,-1.0397,-1.0386,-1.0362,-1.0299,-1.0293,-1.0305,-1.0301,-1.0299,-1.0298,0,0,0,0,0,0,0,-1.0789,-1.0775,-1.0645,-1.0646,-1.0637,-1.0613,-1.0598,-1.0553,-1.047,-1.0527,-1.052,-1.0505,-1.0392,-1.0367,-1.0358,-1.0291,-1.0305,-1.03,-1.0297,-1.0295,-1.0206,-1.0207,0,0,0,0,0,0,-1.0807,-1.0782,-1.065,-1.0641,-1.0707,-1.061,-1.0593,-1.0566,-1.0471,-1.0455,-1.0506,-1.0502,-1.0376,-1.0364,-1.0353,-1.0328,-1.0299,-1.0295,-1.0292,-1.0206,-1.0207,-1.0207,0,0,0,0,0,0,-1.0811,-1.0796,-1.0655,-1.071,-1.069,-1.0608,-1.0579,-1.0564,-1.0539,-1.0455,-1.0439,-1.0496,-1.0375,-1.036,-1.0318,-1.0322,-1.0293,-1.0288,-1.0205,-1.0206,-1.0207,-1.0281,0,0,0,0,0,0,-1.0816,-1.0798,-1.0793,-1.071,-1.0687,-1.0625,-1.0579,-1.0562,-1.0531,-1.0524,-1.0442,-1.0427,-1.0373,-1.0326,-1.0313,-1.0315,-1.0284,-1.0204,-1.0205,-1.0207,-1.0278,-1.0284,-1.029,0,0,0,0,0,-1.0823,-1.0819,-1.0794,-1.0778,-1.068,-1.0625,-1.0612,-1.0551,-1.0532,-1.0526,-1.0471,-1.043,-1.0324,-1.0322,-1.0307,-1.0308,-1.0204,-1.0205,-1.0206,-1.0275,-1.0283,-1.029,0,0,0,0,0,0,-1.0904,-1.0807,-1.0778,-1.0747,-1.0695,-1.061,-1.0601,-1.0562,-1.0513,-1.0509,-1.0434,-1.0416,-1.0381,-1.034,-1.034,-1.0287,-1.0259,-1.0257,-1.0316,-1.0323,-1.0329,-1.0339,-1.028,0,0,0,0,0,-1.0918,-1.0884,-1.08,-1.0781,-1.0756,-1.0683,-1.0657,-1.0615,-1.0557,-1.0534,-1.0477,-1.0422,-1.0375,-1.0347,-1.03,-1.0271,-1.025,-1.0263,-1.027,-1.0275,-1.0274,-1.0254,-1.0258,-1.0212,-1.0212,-1.0212,0,0,-1.0947,-1.089,-1.0873,-1.0796,-1.075,-1.0714,-1.0665,-1.0629,-1.0601,-1.0528,-1.0486,-1.0441,-1.0374,-1.0338,-1.032,-1.0303,-1.0282,-1.0277,-1.0282,-1.0278,-1.0256,-1.026,-1.0264,-1.0213,-1.0212,-1.0212,0,0,-1.0982,-1.0936,-1.0914,-1.087,-1.0802,-1.0753,-1.0748,-1.0668,-1.0637,-1.0593,-1.0537,-1.0501,-1.0424,-1.0378,-1.0344,-1.0359,-1.0318,-1.0345,-1.0377,-1.0358,-1.0362,-1.0364,-1.0368,-1.0371,-1.0345,-1.0345,-1.0345,0,-1.1026,-1.0971,-1.0908,-1.0875,-1.0841,-1.0775,-1.0751,-1.071,-1.063,-1.0608,-1.0591,-1.0491,-1.0441,-1.0393,-1.0396,-1.0372,-1.0362,-1.0355,-1.0367,-1.0369,-1.037,-1.0373,-1.0375,-1.0349,-1.0349,-1.0348,-1.0348,0,-1.1028,-1.0991,-1.0981,-1.0906,-1.0872,-1.0844,-1.0774,-1.0746,-1.0706,-1.0658,-1.0613,-1.055,-1.0489,-1.0474,-1.0435,-1.0419,-1.0411,-1.0381,-1.0351,-1.038,-1.0381,-1.0381,-1.0354,-1.0353,-1.0352,-1.0351,0,0,-1.1111,-1.1001,-1.0998,-1.0963,-1.0882,-1.0851,-1.0818,-1.0759,-1.0736,-1.0682,-1.0652,-1.0587,-1.0559,-1.0521,-1.0475,-1.0458,-1.0472,-1.043,-1.0427,-1.0439,-1.0449,-1.0471,-1.0474,-1.0444,-1.0444,-1.0444,-1.0454,0,-1.1133,-1.1073,-1.1014,-1.0974,-1.0937,-1.0872,-1.0844,-1.079,-1.0744,-1.0704,-1.0652,-1.0607,-1.0574,-1.055,-1.0531,-1.0475,-1.0473,-1.0473,-1.0413,-1.0412,-1.0432,-1.0475,-1.0498,-1.0511,-1.0454,-1.0454,-1.0454,0,-1.1151,-1.1101,-1.1058,-1.098,-1.0962,-1.0937,-1.0877,-1.0841,-1.0777,-1.0745,-1.0702,-1.0653,-1.0613,-1.0587,-1.053,-1.0531,-1.0503,-1.0471,-1.047,-1.0462,-1.0435,-1.0466,-1.0514,-1.0515,-1.0455,-1.0455,-1.0455,0,-1.1214,-1.1136,-1.11,-1.1072,-1.0979,-1.0963,-1.0924,-1.086,-1.0827,-1.0774,-1.0751,-1.0694,-1.0662,-1.0618,-1.0554,-1.0541,-1.0502,-1.0472,-1.0472,-1.0474,-1.0467,-1.0468,-1.051,-1.045,-1.045,-1.045,-1.045,0,-1.1244,-1.122,-1.1127,-1.1105,-1.1075,-1.1006,-1.0978,-1.0932,-1.0875,-1.0841,-1.0781,-1.075,-1.0668,-1.0626,-1.0576,-1.0535,-1.0521,-1.0492,-1.0479,-1.0497,-1.0501,-1.0477,-1.0474,-1.0451,-1.0451,-1.0451,-1.0451,0,-1.131,-1.1247,-1.1203,-1.1119,-1.1097,-1.1079,-1.1006,-1.098,-1.093,-1.0888,-1.0874,-1.0795,-1.0742,-1.0674,-1.06,-1.0566,-1.053,-1.051,-1.0553,-1.0545,-1.0549,-1.0549,-1.0576,-1.0575,-1.0518,-1.0519,-1.0519,0,-1.1334,-1.1314,-1.1228,-1.1201,-1.1164,-1.1122,-1.1088,-1.1019,-1.0986,-1.0911,-1.0894,-1.0838,-1.0788,-1.0707,-1.0642,-1.0584,-1.0562,-1.0575,-1.0553,-1.0571,-1.056,-1.0562,-1.0559,-1.0581,-1.0582,-1.0582,-1.0583,0,-1.1382,-1.1351,-1.1306,-1.1249,-1.1211,-1.1163,-1.1112,-1.1093,-1.1012,-1.0978,-1.0924,-1.0886,-1.0811,-1.0754,-1.0688,-1.0644,-1.0599,-1.0591,-1.0587,-1.0606,-1.063,-1.0616,-1.0567,-1.059,-1.059,-1.0589,-1.0589,-1.0588,-1.1426,-1.1404,-1.134,-1.1291,-1.1246,-1.1199,-1.1171,-1.1117,-1.1071,-1.1005,-1.0966,-1.0914,-1.0848,-1.0754,-1.0712,-1.0668,-1.0651,-1.0647,-1.0646,-1.0646,-1.0651,-1.0638,-1.0656,-1.0656,-1.0655,-1.0655,-1.0655,0,-1.1469,-1.1425,-1.1381,-1.1311,-1.1272,-1.1235,-1.1175,-1.1145,-1.11,-1.1043,-1.0996,-1.0933,-1.0877,-1.0807,-1.0746,-1.0724,-1.0702,-1.071,-1.0711,-1.0701,-1.0671,-1.0679,-1.0729,-1.0729,-1.0729,-1.0729,-1.0729,-1.0729,-1.1488,-1.1449,-1.141,-1.1347,-1.1301,-1.1251,-1.122,-1.1175,-1.113,-1.1063,-1.1017,-1.0972,-1.0908,-1.0842,-1.0788,-1.0769,-1.0749,-1.0763,-1.0738,-1.071,-1.0704,-1.0697,-1.0705,-1.076,-1.076,-1.0771,-1.0771,-1.0772]}]]